Bei Facebook empfehlenBei Twitter postenGoogle plusPinterest

Das Wetter im Erzgebirge am 21.01.2016

Wetter und Klima am 21.01.2016 Holzhau im Erzgebirge (630m ü.NN)
Letzte gemessene Temperatur und Uhrzeit der Messung23:45:00 Uhr-14.90 °C
Temperatur (Maximum / Höchstwert) und Uhrzeit der Messung00:00:00 Uhr-4.50 °C
Temperatur (Minimum / Tiefstwert) und Uhrzeit der Messung23:30:00-15.10 °C
Errechneter Absolutwert der Temperaturschwankungen zwischen Tmin und Tmax des Tages10.60 K
Errechnete Tagesmitteltemperatur-7.85625 °C
Gesamt - Niederschlag des Tages (in flüssiger Form)0.00 Liter / m²
Luftdruck (Maximum / Höchstwert) und Zeitpunkt der Messung23:30:00 Uhr1024.00 hPa
Luftdruck (Minimum / Tiefstwert) und Zeitpunkt der Messung00:00:00 Uhr1011.90 hPa
Errechneter Absolutwert der Luftdruckschwankungen des Tages12.10 hPa
Höchste gemessene Windgeschwindigkeit und Uhrzeit der Messung23:45:00 Uhr0.00 km/h
Errechnete Windhäufigkeit in Relation zu den Messwerten des Tages0.00000 %
Niedrigste Windkühle (Windchill) und Zeitpunkt der Messung23:30:00 Uhr-15.10 °C
Taupunkt (Maximum / Höchstwert) und Uhrzeit der Messung00:00:00 Uhr-5.40 °C
Taupunkt (Minimum / Tiefstwert) und Uhrzeit der Messung23:30:00-16.80 °C
Anzahl der automatisch eingelesenen Messwerte 96

Detaillierte Wetter- und Klima- Messwerte für den 21.01.2016 in Holzhau im Erzgebirge (630m ü.NN)
ZeitTemperaturLuftdruckRel. LuftfeuchteWindWindrichtungWindchillTaupunktNiederschlag l/m²
23:45:00-14.90 °C1023.90 hPa88.00 %-16.60 °C 
23:30:00-15.10 °C1024.00 hPa88.00 %-16.80 °C 
23:15:00-15.10 °C1023.80 hPa88.00 %-16.80 °C 
23:00:00-15.00 °C1024.00 hPa88.00 %-16.70 °C 
22:45:00-14.80 °C1024.00 hPa88.00 %-16.50 °C 
22:30:00-14.70 °C1024.00 hPa88.00 %-16.40 °C 
22:15:00-14.60 °C1023.80 hPa88.00 %-16.30 °C 
22:00:00-14.60 °C1023.90 hPa88.00 %-16.30 °C 
21:45:00-14.30 °C1023.70 hPa88.00 %-16.00 °C 
21:30:00-14.20 °C1023.90 hPa88.00 %-15.90 °C 
21:15:00-14.20 °C1023.70 hPa88.00 %-15.90 °C 
21:00:00-13.90 °C1023.90 hPa88.00 %-15.70 °C 
20:45:00-13.80 °C1023.80 hPa88.00 %-15.60 °C 
20:30:00-13.60 °C1023.60 hPa88.00 %-15.40 °C 
20:15:00-13.20 °C1023.40 hPa88.00 %-15.00 °C 
20:00:00-13.00 °C1023.30 hPa88.00 %-14.80 °C 
19:45:00-12.40 °C1023.10 hPa88.00 %-14.20 °C 
19:30:00-12.10 °C1023.10 hPa88.00 %-13.90 °C 
19:15:00-11.60 °C1023.20 hPa88.00 %-13.40 °C 
19:00:00-11.60 °C1023.00 hPa88.00 %-13.40 °C 
18:45:00-11.40 °C1022.80 hPa88.00 %-13.20 °C 
18:30:00-10.80 °C1022.70 hPa88.00 %-12.60 °C 
18:15:00-9.90 °C1022.50 hPa88.00 %-11.70 °C 
18:00:00-9.00 °C1022.20 hPa88.00 %-10.80 °C 
17:45:00-8.20 °C1022.10 hPa88.00 %-10.00 °C 
17:30:00-7.90 °C1022.20 hPa88.00 %-9.70 °C 
17:15:00-7.80 °C1021.90 hPa88.00 %-9.60 °C 
17:00:00-7.70 °C1021.90 hPa88.00 %-9.50 °C 
16:45:00-7.50 °C1021.70 hPa88.00 %-9.30 °C 
16:30:00-7.30 °C1021.80 hPa89.00 %-9.00 °C 
16:15:00-7.10 °C1021.60 hPa89.00 %-8.80 °C 
16:00:00-7.10 °C1021.50 hPa88.00 %-8.90 °C 
15:45:00-6.90 °C1021.50 hPa88.00 %-8.80 °C 
15:30:00-6.80 °C1021.60 hPa88.00 %-8.70 °C 
15:15:00-6.50 °C1021.80 hPa88.00 %-8.40 °C 
15:00:00-6.20 °C1021.50 hPa88.00 %-8.10 °C 
14:45:00-6.10 °C1021.40 hPa88.00 %-8.00 °C 
14:30:00-5.90 °C1021.20 hPa89.00 %-7.60 °C 
14:15:00-5.90 °C1021.50 hPa89.00 %-7.60 °C 
14:00:00-5.60 °C1021.40 hPa89.00 %-7.30 °C 
13:45:00-5.60 °C1021.20 hPa90.00 %-7.10 °C 
13:30:00-5.70 °C1021.10 hPa90.00 %-7.20 °C 
13:15:00-5.60 °C1021.00 hPa90.00 %-7.10 °C 
13:00:00-5.60 °C1020.80 hPa90.00 %-7.10 °C 
12:45:00-5.60 °C1020.80 hPa90.00 %-7.10 °C 
12:30:00-5.60 °C1021.00 hPa90.00 %-7.10 °C 
12:15:00-5.40 °C1020.70 hPa91.00 %-6.80 °C 
12:00:00-5.50 °C1020.60 hPa91.00 %-6.90 °C 
11:45:00-5.60 °C1020.70 hPa91.00 %-7.00 °C 
11:30:00-5.70 °C1020.50 hPa91.00 %-7.10 °C 
11:15:00-5.60 °C1020.40 hPa92.00 %-6.80 °C 
11:00:00-5.70 °C1020.30 hPa92.00 %-6.90 °C 
10:45:00-5.70 °C1020.10 hPa92.00 %-6.90 °C 
10:30:00-5.90 °C1019.80 hPa93.00 %-7.00 °C 
10:15:00-6.20 °C1019.60 hPa93.00 %-7.30 °C 
10:00:00-6.20 °C1019.40 hPa93.00 %-7.30 °C 
09:45:00-6.50 °C1019.40 hPa92.00 %-7.70 °C 
09:30:00-6.60 °C1018.90 hPa93.00 %-7.70 °C 
09:15:00-6.70 °C1018.80 hPa93.00 %-7.80 °C 
09:00:00-6.80 °C1018.50 hPa93.00 %-7.90 °C 
08:45:00-6.90 °C1018.10 hPa93.00 %-8.00 °C 
08:30:00-6.90 °C1017.90 hPa93.00 %-8.00 °C 
08:15:00-6.90 °C1017.70 hPa93.00 %-8.00 °C 
08:00:00-6.90 °C1017.60 hPa93.00 %-8.00 °C 
07:45:00-6.90 °C1017.40 hPa93.00 %-8.00 °C 
07:30:00-6.80 °C1017.10 hPa93.00 %-7.90 °C 
07:15:00-6.70 °C1017.00 hPa93.00 %-7.80 °C 
07:00:00-6.50 °C1016.90 hPa93.00 %-7.60 °C 
06:45:00-6.50 °C1016.60 hPa93.00 %-7.60 °C 
06:30:00-6.40 °C1016.20 hPa93.00 %-7.50 °C 
06:15:00-6.40 °C1016.10 hPa93.00 %-7.50 °C 
06:00:00-6.40 °C1016.00 hPa93.00 %-7.50 °C 
05:45:00-6.20 °C1015.70 hPa93.00 %-7.30 °C 
05:30:00-6.20 °C1015.50 hPa93.00 %-7.30 °C 
05:15:00-6.10 °C1015.30 hPa93.00 %-7.20 °C 
05:00:00-6.00 °C1015.20 hPa93.00 %-7.10 °C 
04:45:00-5.90 °C1015.00 hPa93.00 %-7.00 °C 
04:30:00-5.80 °C1014.80 hPa93.00 %-6.90 °C 
04:15:00-5.70 °C1014.40 hPa93.00 %-6.80 °C 
04:00:00-5.60 °C1014.40 hPa93.00 %-6.70 °C 
03:45:00-5.60 °C1014.10 hPa93.00 %-6.70 °C 
03:30:00-5.50 °C1014.00 hPa93.00 %-6.60 °C 
03:15:00-5.40 °C1013.90 hPa93.00 %-6.50 °C 
03:00:00-5.10 °C1013.70 hPa93.00 %-6.20 °C 
02:45:00-5.20 °C1013.50 hPa93.00 %-6.30 °C 
02:30:00-5.20 °C1013.30 hPa93.00 %-6.30 °C 
02:15:00-5.00 °C1013.20 hPa93.00 %-6.10 °C 
02:00:00-4.90 °C1013.20 hPa94.00 %-5.80 °C 
01:45:00-4.90 °C1013.10 hPa94.00 %-5.80 °C 
01:30:00-5.00 °C1012.80 hPa93.00 %-6.10 °C 
01:15:00-4.90 °C1012.80 hPa94.00 %-5.80 °C 
01:00:00-4.90 °C1012.60 hPa94.00 %-5.80 °C 
00:45:00-4.90 °C1012.40 hPa94.00 %-5.80 °C 
00:30:00-4.80 °C1012.30 hPa94.00 %-5.70 °C 
00:15:00-4.60 °C1012.10 hPa94.00 %-5.50 °C 
00:00:00-4.50 °C1011.90 hPa94.00 %-5.40 °C 

Permanenter Link zu dieser Seite: Wetter im Erzgebirge am 21.01.2016
Performance-Info: Die Erstellung der Seite / Statistik(en) / Tabelle(n) erforderte 5 Datenbankserver-Abfrage(n) und dauerte 102 Millisekunden. (Dieser Messwert ist von der Gesamt-Auslastung des Servers abhängig.)
Erzgebirge - Wetter | Erzgebirge - Wetter (Mobilgeräte) | Komplette Klimadatenbank